Location: Newark
(42.8481°N, 0.4872°E)
Time: 22:14:13
(UTC+00:00)

SR - Pass Details

Date: 01 November 2020
Orbit: 579 x 876 km, 66.7° (Epoch: 28 November)

Event Time Altitude Azimuth Distance (km) Brightness Sun altitude
Rises 07:48:16 0° 343° (NNW) 3,025 ? 11.6°
Reaches altitude 10° 07:52:29 10° 19° (NNE) 2,190 ? 12.2°
Maximum altitude 07:53:54 11° 36° (NE) 2,142 ? 12.4°
Drops below altitude 10° 07:55:22 10° 53° (NE) 2,245 ? 12.7°
Sets 07:59:52 0° 88° (E) 3,255 ? 13.3°
